Flag for Greece Weather past 2 weeks in Ilioupoli, Greece

Now
81 °F

Passing clouds.


Feels Like: 80 °F
Forecast: 68 / 80 °F
Wind: 12 mph from Northeast

Location: Eleftherios Venizelos International Airport

Current Time: Jun 30, 2015 at 11:22:14 AM

Latest Report: Jun 30, 2015 at 10:50 AM


Visibility: N/A

Pressure: 30.04 "Hg

Humidity: 39%

Dew point: 54 °F

Location of IlioupoliLocation

Historic Weather in Ilioupoli — Graph

°F

Ilioupoli temperature yesterday

Maximum temperature yesterday: 84 °F (at 3:50 PM)
Minimum temperature yesterday: 59 °F (at 5:50 AM)
Average temperature yesterday: 73 °F

Past Weeks' High & Low Weather Summary

 TemperatureHumidityPressure
High93 °F (Jun 15, 4:20 PM)88% (Jun 19, 12:20 AM)30.04 "Hg (Jun 19, 12:20 AM)
Low57 °F (Jun 24, 5:50 AM)21% (Jun 16, 1:50 PM)29.65 "Hg (Jun 18, 12:20 PM)
Average74 °F55%29.87 "Hg
* Reported Jun 15 9:20 AM — Jun 30 9:50 AM, Ilioupoli, Weather by CustomWeather, © 2015

Note: Actual official high and low records may vary slightly from our data, if they occured in-between our weather recording intervals... More about our weather records

Advertising

Ilioupoli weather history for previous 24 hours

 ConditionsComfort  
Time TempWeatherWind HumidityBarometerVisibility
9:50 AM
Tue, Jun 30
79 °FSunny.10 mph45%30.01 "Hg10 mi
9:20 AM77 °FPassing clouds.9 mph47%30.04 "HgN/A
8:50 AM77 °FSunny.8 mph47%30.01 "Hg10 mi
8:20 AM73 °FPassing clouds.7 mph53%30.01 "HgN/A
7:50 AM70 °FSunny.2 mph64%30.01 "Hg10 mi
7:20 AM70 °FSunny.5 mph64%30.01 "Hg10 mi
6:50 AM66 °FClear.1 mph73%30.01 "Hg10 mi
6:20 AM61 °FClear.1 mph83%30.01 "Hg10 mi
5:50 AM61 °FClear.2 mph83%30.01 "Hg10 mi
5:20 AM63 °FClear.2 mph83%30.01 "Hg10 mi
4:50 AM63 °FClear.1 mph83%30.01 "Hg10 mi
4:20 AM63 °FClear.1 mph77%30.01 "Hg10 mi
3:50 AM63 °FClear.1 mph83%30.01 "Hg10 mi
3:20 AM63 °FClear.3 mph77%30.01 "Hg10 mi
2:50 AM63 °FClear.2 mph83%30.01 "Hg10 mi
2:20 AM63 °FPassing clouds.5 mph83%30.01 "HgN/A
1:50 AM66 °FPassing clouds.1 mph73%30.01 "HgN/A
1:20 AM66 °FPassing clouds.1 mph73%30.01 "HgN/A
12:50 AM66 °FPassing clouds.1 mph78%30.01 "HgN/A
11:50 PM
Mon, Jun 29
68 °FPassing clouds.2 mph73%30.01 "HgN/A
11:20 PM70 °FPassing clouds.2 mph69%30.01 "HgN/A
10:20 PM72 °FPassing clouds.No wind65%30.01 "HgN/A
9:50 PM73 °FPassing clouds.2 mph61%30.01 "HgN/A
9:20 PM73 °FPassing clouds.10 mph61%29.98 "HgN/A
8:50 PM75 °FPassing clouds.12 mph54%29.98 "HgN/A
8:20 PM75 °FScattered clouds.15 mph50%29.98 "HgN/A
7:50 PM77 °FPassing clouds.14 mph51%29.98 "HgN/A
7:20 PM77 °FPassing clouds.14 mph51%29.98 "HgN/A
6:50 PM79 °FPassing clouds.12 mph48%29.95 "HgN/A
6:20 PM79 °FScattered clouds.12 mph42%29.98 "HgN/A
5:50 PM79 °FScattered clouds.12 mph39%29.98 "HgN/A
5:20 PM81 °FScattered clouds.10 mph37%29.98 "HgN/A
4:50 PM84 °FScattered clouds.9 mph33%29.98 "HgN/A
4:20 PM82 °FScattered clouds.12 mph32%29.98 "HgN/A
3:50 PM84 °FScattered clouds.13 mph33%29.98 "HgN/A
3:20 PM82 °FPassing clouds.14 mph32%29.98 "HgN/A
2:50 PM82 °FScattered clouds.16 mph32%29.98 "HgN/A
2:20 PM82 °FPassing clouds.14 mph35%29.98 "HgN/A
1:50 PM82 °FPassing clouds.14 mph37%29.98 "HgN/A
1:20 PM82 °FPassing clouds.14 mph35%29.98 "HgN/A
12:50 PM81 °FPassing clouds.14 mph37%29.98 "HgN/A
12:20 PM81 °FPassing clouds.12 mph34%29.98 "HgN/A
11:50 AM81 °FPassing clouds.12 mph37%29.98 "HgN/A
11:20 AM79 °FPassing clouds.12 mph39%29.98 "HgN/A
Weather by CustomWeather, © 2015

See weather overviewHow to use our weather pages